Weather History for Kulusuk, Greenland

Change the Weather History Date:

Thursday, August 22, 2013

  Actual Average Record
Temperature  
Mean Temperature 44 °F -  
Max Temperature 48 °F 41 °F 51 °F (2003)
Min Temperature 39 °F 36 °F 33 °F (1998)
Degree Days  
Heating Degree Days 22    
Moisture  
Dew Point 37 °F    
Average Humidity 72    
Maximum Humidity 93    
Minimum Humidity 50    
Precipitation  
Precipitation 0.00 in - - ()
Sea Level Pressure  
Sea Level Pressure 29.59 in    
Wind  
Wind Speed 6 mph ()    
Max Wind Speed 16 mph    
Max Gust Speed -    
Visibility 6.2 miles    
Events      
Averages and records for this station are not official NWS values.
T = Trace of Precipitation, MM = Missing Value Source: Averaged Metar Reports

Daily Weather History Graph

Daily Weather History Graph

Search for Another Location

Airport:

Trip Planner

Search our weather history database for the weather conditions in past years. The results will help you decide how hot, cold, wet, or windy it might be!

Date:

Astronomy

Aug. 22, 2013 Rise Set
Actual Time 4:33 AM WGST 8:26 PM WGST
Civil Twilight 3:28 AM WGST 9:30 PM WGST
Nautical Twilight 1:26 AM WGST 11:24 PM WGST
Astronomical Twilight Sun does not rise Sun does not rise
Moon 7:49 PM WGST (8/22) 7:16 AM WGST (8/22)
Length of Visible Light 18h 01m
Length of Day
15h 53m
Full, 97% of the Moon is Illuminated
Aug 22
Full
Aug 28
Last Quarter
Sep 5
New
Sep 12
First Quarter
Sep 19
Full

Hourly Weather History & Observations

Time (WGST) Temp. Windchill Dew Point Humidity Pressure Visibility Wind Dir Wind Speed Gust Speed Precip Events Conditions
12:50 AM 42.8 °F - 39.2 °F 87% 29.56 in - West 1.2 mph - N/A   Overcast
1:50 AM 41.0 °F - 37.4 °F 87% 29.56 in - WNW 2.3 mph - N/A   Overcast
2:50 AM 42.8 °F - 39.2 °F 87% 29.53 in - North 1.2 mph - N/A   Overcast
3:50 AM 42.8 °F 41.1 °F 39.2 °F 87% 29.53 in - NE 3.5 mph - N/A   Overcast
4:00 AM 43 °F - 38 °F 78% 29.55 in - East 5.8 mph - -   Overcast
4:50 AM 39.2 °F 35.9 °F 37.4 °F 93% 29.53 in - NNW 4.6 mph - N/A   Overcast
5:50 AM 42.8 °F 41.1 °F 39.2 °F 87% 29.53 in 6.2 mi West 3.5 mph - N/A   Light Drizzle
6:50 AM 44.6 °F 42.2 °F 39.2 °F 81% 29.53 in 6.2 mi Variable 4.6 mph - N/A   Light Drizzle
7:00 AM 45 °F - 39 °F 72% 29.56 in - East 13.8 mph - -   Overcast
7:50 AM 44.6 °F 38.4 °F 39.2 °F 81% 29.56 in 6.2 mi East 12.7 mph - N/A   Light Drizzle
8:50 AM 46.4 °F 39.8 °F 39.2 °F 76% 29.56 in 6.2 mi ENE 16.1 mph - N/A   Light Drizzle
9:50 AM 46.4 °F 40.7 °F 39.2 °F 76% 29.56 in 6.2 mi East 12.7 mph - N/A   Light Drizzle
10:50 AM 46.4 °F 39.8 °F 39.2 °F 76% 29.56 in 6.2 mi East 16.1 mph - N/A   Drizzle
11:50 AM 46.4 °F 41.5 °F 39.2 °F 76% 29.59 in 6.2 mi ENE 10.4 mph - N/A   Drizzle
12:50 PM 48.2 °F - 37.4 °F 66% 29.59 in 6.2 mi ENE 8.1 mph - N/A   Mostly Cloudy
1:00 PM 48 °F - 35 °F 50% 29.60 in - ENE 9.2 mph - -   Mostly Cloudy
1:50 PM 48.2 °F - 37.4 °F 66% 29.59 in 6.2 mi ENE 12.7 mph - N/A   Mostly Cloudy
2:50 PM 48.2 °F - 33.8 °F 58% 29.59 in 6.2 mi East 16.1 mph - N/A   Mostly Cloudy
3:50 PM 46.4 °F 40.7 °F 33.8 °F 62% 29.59 in 6.2 mi East 12.7 mph - N/A   Mostly Cloudy
4:00 PM 45 °F - 33 °F 52% 29.62 in - East 15.0 mph - -   Mostly Cloudy
4:50 PM 44.6 °F 37.8 °F 33.8 °F 66% 29.62 in 6.2 mi ESE 15.0 mph - N/A   Mostly Cloudy
5:50 PM 46.4 °F 41.9 °F 33.8 °F 62% 29.62 in 6.2 mi East 9.2 mph - N/A   Mostly Cloudy
6:50 PM 46.4 °F 42.4 °F 33.8 °F 62% 29.62 in 6.2 mi East 8.1 mph - N/A   Mostly Cloudy
7:50 PM 46.4 °F - 33.8 °F 62% 29.62 in - Variable 2.3 mph - N/A   Partly Cloudy
8:50 PM 42.8 °F - 33.8 °F 70% 29.65 in - Variable 1.2 mph - N/A   Unknown
9:50 PM 44.6 °F - 35.6 °F 71% 29.65 in - Variable 1.2 mph - N/A   Overcast
10:00 PM 45 °F - 33 °F 53% 29.66 in - South 2.3 mph - -   Overcast
10:50 PM 42.8 °F 41.1 °F 33.8 °F 70% 29.65 in - South 3.5 mph - N/A   Partly Cloudy
11:50 PM 39.2 °F - 33.8 °F 81% 29.62 in - Calm Calm - N/A   Unknown